Location: Austin
(30.3000°N, 97.7500°W)
Time: 00:09:46
(UTC-05:00)

USA 267 - Pass Details

Date: 15 May 2024
Orbit: 1100 x 1107 km, 123.0° (Epoch: 15 May)

Event Time Altitude Azimuth Distance (km) Brightness Sun altitude
Rises 22:52:19 0° 45° (NE) 3,916 6.2 -28.0°
Reaches altitude 10° 22:54:50 10° 49° (NE) 2,957 5.5 -28.4°
Enters shadow 22:58:53 39° 66° (ENE) 1,593 3.9 -28.9°
